Change the Weather History Date:

Thursday, December 5, 2013

  Actual Average Record
Temperature  
Mean Temperature 51 °F -  
Max Temperature 60 °F 67 °F 82 °F (2000)
Min Temperature 42 °F 49 °F 37 °F (2011)
Degree Days  
Heating Degree Days 14    
Growing Degree Days 1 (Base 50)    
Moisture  
Dew Point 35 °F    
Average Humidity 60    
Maximum Humidity 88    
Minimum Humidity 30    
Precipitation  
Precipitation 0.00 in - - ()
Sea Level Pressure  
Sea Level Pressure 30.02 in    
Wind  
Wind Speed 5 mph (ENE)    
Max Wind Speed 10 mph    
Max Gust Speed -    
Visibility 10 miles    
Events      
Averages and records for this station are not official NWS values.
T = Trace of Precipitation, MM = Missing Value Source: NWS Daily Summary

Daily Weather History Graph

Daily Weather History Graph

Search for Another Location

Airport or City:

Trip Planner

Search our weather history database for the weather conditions in past years. The results will help you decide how hot, cold, wet, or windy it might be!

Date:

Astronomy

Dec. 05, 2013 Rise Set
Actual Time 6:42 AM PST 4:43 PM PST
Civil Twilight 6:15 AM PST 5:10 PM PST
Nautical Twilight 5:44 AM PST 5:41 PM PST
Astronomical Twilight 5:13 AM PST 6:11 PM PST
Moon 9:10 AM PST (12/5) 8:04 PM PST (12/5)
Length of Visible Light 10h 55m
Length of Day
10h 00m
Waxing Crescent, 11% of the Moon is Illuminated
Dec 5
Waxing Crescent
Dec 9
First Quarter
Dec 17
Full
Dec 25
Last Quarter
Jan 1
New

Hourly Weather History & Observations

Time (PST) Temp. Windchill Dew Point Humidity Pressure Visibility Wind Dir Wind Speed Gust Speed Precip Events Conditions
12:58 AM 46.9 °F - 37.9 °F 71% 29.96 in 10.0 mi East 3.5 mph - N/A   Scattered Clouds
1:58 AM 45.0 °F 43.5 °F 38.5 °F 78% 29.96 in 10.0 mi ENE 3.5 mph - N/A   Clear
2:58 AM 44.1 °F 41.5 °F 38.1 °F 80% 29.96 in 10.0 mi ENE 4.6 mph - N/A   Clear
3:58 AM 43.0 °F 38.8 °F 38.3 °F 84% 29.96 in 10.0 mi ENE 6.9 mph - N/A   Clear
4:58 AM 43.5 °F 39.4 °F 36.7 °F 77% 29.96 in 10.0 mi NE 6.9 mph - N/A   Clear
5:58 AM 42.8 °F 38.6 °F 37.2 °F 81% 29.98 in 10.0 mi ENE 6.9 mph - N/A   Clear
6:58 AM 43.2 °F 39.7 °F 36.5 °F 77% 30.00 in 10.0 mi NE 5.8 mph - N/A   Partly Cloudy
7:58 AM 47.8 °F - 35.4 °F 62% 30.01 in 10.0 mi NE 5.8 mph - N/A   Partly Cloudy
8:58 AM 52.5 °F - 33.1 °F 48% 30.04 in 10.0 mi NE 5.8 mph - N/A   Partly Cloudy
9:58 AM 56.1 °F - 32.7 °F 41% 30.05 in 10.0 mi Variable 3.5 mph - N/A   Partly Cloudy
10:58 AM 57.4 °F - 29.8 °F 35% 30.04 in 10.0 mi North 3.5 mph - N/A   Scattered Clouds
11:58 AM 60.1 °F - 28.4 °F 30% 30.02 in 10.0 mi Variable 2.3 mph - N/A   Mostly Cloudy
12:58 PM 60.1 °F - 30.2 °F 32% 30.01 in 10.0 mi WSW 2.3 mph - N/A   Mostly Cloudy
1:58 PM 60.6 °F - 31.1 °F 33% 29.99 in 10.0 mi SW 6.9 mph - N/A   Scattered Clouds
2:58 PM 59.5 °F - 30.4 °F 33% 30.00 in 10.0 mi SSW 8.1 mph - N/A   Partly Cloudy
3:58 PM 57.6 °F - 32.7 °F 39% 30.01 in 10.0 mi SW 10.4 mph - N/A   Partly Cloudy
4:58 PM 54.1 °F - 33.3 °F 45% 30.02 in 10.0 mi WSW 6.9 mph - N/A   Partly Cloudy
5:58 PM 52.0 °F - 33.1 °F 49% 30.04 in 10.0 mi West 3.5 mph - N/A   Clear
6:58 PM 49.3 °F - 34.9 °F 58% 30.06 in 10.0 mi East 2.3 mph - N/A   Clear
7:58 PM 47.1 °F - 35.8 °F 65% 30.07 in 10.0 mi East 2.3 mph - N/A   Partly Cloudy
8:58 PM 45.7 °F - 38.5 °F 76% 30.09 in 10.0 mi Calm Calm - N/A   Partly Cloudy
9:58 PM 46.4 °F - 40.5 °F 80% 30.10 in 10.0 mi ESE 1.2 mph - N/A   Partly Cloudy
10:58 PM 45.1 °F 43.7 °F 41.7 °F 88% 30.11 in 10.0 mi ENE 3.5 mph - N/A   Clear
11:58 PM 44.6 °F 43.1 °F 40.5 °F 85% 30.12 in 10.0 mi NNE 3.5 mph - N/A   Clear